Year,Month,Day,Hour,Minute,Value (Times are PST for barometer in hPa)
2015,08,29,00,00,1005.22
2015,08,29,00,01,1005.18
2015,08,29,00,02,1005.18
2015,08,29,00,03,1005.22
2015,08,29,00,04,1005.15
2015,08,29,00,05,1005.18
2015,08,29,00,06,1005.11
2015,08,29,00,07,1005.11
2015,08,29,00,08,1005.08
2015,08,29,00,09,1005.15
2015,08,29,00,10,1005.11
2015,08,29,00,11,1005.08
2015,08,29,00,12,1005.05
2015,08,29,00,13,1005.05
2015,08,29,00,14,1005.01
2015,08,29,00,15,1004.98
2015,08,29,00,16,1004.95
2015,08,29,00,17,1004.91
2015,08,29,00,18,1004.88
2015,08,29,00,19,1004.84
2015,08,29,00,20,1004.81
2015,08,29,00,21,1004.78
2015,08,29,00,22,1004.78
2015,08,29,00,23,1004.71
2015,08,29,00,24,1004.74
2015,08,29,00,25,1004.71
2015,08,29,00,26,1004.67
2015,08,29,00,27,1004.64
2015,08,29,00,28,1004.64
2015,08,29,00,29,1004.61
2015,08,29,00,30,1004.54
2015,08,29,00,31,1004.57
2015,08,29,00,32,1004.54
2015,08,29,00,33,1004.50
2015,08,29,00,34,1004.50
2015,08,29,00,35,1004.47
2015,08,29,00,36,1004.44
2015,08,29,00,37,1004.50
2015,08,29,00,38,1004.44
2015,08,29,00,39,1004.44
2015,08,29,00,40,1004.40
2015,08,29,00,41,1004.37
2015,08,29,00,42,1004.40
2015,08,29,00,43,1004.34
2015,08,29,00,44,1004.30
2015,08,29,00,45,1004.27
2015,08,29,00,46,1004.27
2015,08,29,00,47,1004.27
2015,08,29,00,48,1004.22
2015,08,29,00,49,1004.13
2015,08,29,00,50,1004.10
2015,08,29,00,51,1004.10
2015,08,29,00,52,1004.10
2015,08,29,00,53,1004.03
2015,08,29,00,54,1004.03
2015,08,29,00,55,1004.00
2015,08,29,00,56,1004.00
2015,08,29,00,57,1003.93
2015,08,29,00,58,1003.90
2015,08,29,00,59,1003.86
2015,08,29,01,00,1003.83
2015,08,29,01,01,1003.76
2015,08,29,01,02,1003.69
2015,08,29,01,03,1003.72
2015,08,29,01,04,1003.59
2015,08,29,01,05,1003.56
2015,08,29,01,06,1003.52
2015,08,29,01,07,1003.52
2015,08,29,01,08,1003.49
2015,08,29,01,09,1003.42
2015,08,29,01,10,1003.39
2015,08,29,01,11,1003.34
2015,08,29,01,12,1003.25
2015,08,29,01,13,1003.22
2015,08,29,01,14,1003.22
2015,08,29,01,15,1003.22
2015,08,29,01,16,1003.25
2015,08,29,01,17,1003.22
2015,08,29,01,18,1003.18
2015,08,29,01,19,1003.18
2015,08,29,01,20,1003.12
2015,08,29,01,21,1003.08
2015,08,29,01,22,1003.05
2015,08,29,01,23,1003.01
2015,08,29,01,24,1003.05
2015,08,29,01,25,1003.05
2015,08,29,01,26,1002.98
2015,08,29,01,27,1003.05
2015,08,29,01,28,1003.01
2015,08,29,01,29,1002.95
2015,08,29,01,30,1002.97
2015,08,29,01,31,1002.85
2015,08,29,01,32,1002.85
2015,08,29,01,33,1002.81
2015,08,29,01,34,1002.78
2015,08,29,01,35,1002.74
2015,08,29,01,36,1002.71
2015,08,29,01,37,1002.68
2015,08,29,01,38,1002.71
2015,08,29,01,39,1002.68
2015,08,29,01,40,1002.64
2015,08,29,01,41,1002.61
2015,08,29,01,42,1002.57
2015,08,29,01,43,1002.54
2015,08,29,01,44,1002.54
2015,08,29,01,45,1002.51
2015,08,29,01,46,1002.47
2015,08,29,01,47,1002.34
2015,08,29,01,48,1002.41
2015,08,29,01,49,1002.34
2015,08,29,01,50,1002.34
2015,08,29,01,51,1002.34
2015,08,29,01,52,1002.37
2015,08,29,01,53,1002.30
2015,08,29,01,54,1002.27
2015,08,29,01,55,1002.27
2015,08,29,01,56,1002.27
2015,08,29,01,57,1002.24
2015,08,29,01,58,1002.20
2015,08,29,01,59,1002.17
2015,08,29,02,00,1002.13
2015,08,29,02,01,1002.13
2015,08,29,02,02,1002.07
2015,08,29,02,03,1002.07
2015,08,29,02,04,1002.07
2015,08,29,02,05,1002.03
2015,08,29,02,06,1002.00
2015,08,29,02,07,1001.97
2015,08,29,02,08,1002.07
2015,08,29,02,09,1002.00
2015,08,29,02,10,1002.00
2015,08,29,02,11,1001.97
2015,08,29,02,12,1001.92
2015,08,29,02,13,1001.80
2015,08,29,02,14,1001.76
2015,08,29,02,15,1001.76
2015,08,29,02,16,1001.69
2015,08,29,02,17,1001.69
2015,08,29,02,18,1001.66
2015,08,29,02,19,1001.66
2015,08,29,02,20,1001.59
2015,08,29,02,21,1001.59
2015,08,29,02,22,1001.59
2015,08,29,02,23,1001.56
2015,08,29,02,24,1001.49
2015,08,29,02,25,1001.46
2015,08,29,02,26,1001.39
2015,08,29,02,27,1001.36
2015,08,29,02,28,1001.32
2015,08,29,02,29,1001.36
2015,08,29,02,30,1001.36
2015,08,29,02,31,1001.39
2015,08,29,02,32,1001.36
2015,08,29,02,33,1001.32
2015,08,29,02,34,1001.29
2015,08,29,02,35,1001.22
2015,08,29,02,36,1001.22
2015,08,29,02,37,1001.22
2015,08,29,02,38,1001.19
2015,08,29,02,39,1001.15
2015,08,29,02,40,1001.08
2015,08,29,02,41,1001.02
2015,08,29,02,42,1000.98
2015,08,29,02,43,1000.88
2015,08,29,02,44,1000.81
2015,08,29,02,45,1000.81
2015,08,29,02,46,1000.81
2015,08,29,02,47,1000.81
2015,08,29,02,48,1000.81
2015,08,29,02,49,1000.85
2015,08,29,02,50,1000.85
2015,08,29,02,51,1000.85
2015,08,29,02,52,1000.75
2015,08,29,02,53,1000.71
2015,08,29,02,54,1000.58
2015,08,29,02,55,1000.64
2015,08,29,02,56,1000.61
2015,08,29,02,57,1000.58
2015,08,29,02,58,1000.58
2015,08,29,02,59,1000.61
2015,08,29,03,00,1000.61
2015,08,29,03,01,1000.54
2015,08,29,03,02,1000.51
2015,08,29,03,03,1000.51
2015,08,29,03,04,1000.58
2015,08,29,03,05,1000.48
2015,08,29,03,06,1000.54
2015,08,29,03,07,1000.48
2015,08,29,03,08,1000.41
2015,08,29,03,09,1000.41
2015,08,29,03,10,1000.37
2015,08,29,03,11,1000.37
2015,08,29,03,12,1000.37
2015,08,29,03,13,1000.34
2015,08,29,03,14,1000.34
2015,08,29,03,15,1000.34
2015,08,29,03,16,1000.34
2015,08,29,03,17,1000.34
2015,08,29,03,18,1000.27
2015,08,29,03,19,1000.27
2015,08,29,03,20,1000.20
2015,08,29,03,21,1000.24
2015,08,29,03,22,1000.10
2015,08,29,03,23,999.97
2015,08,29,03,24,999.87
2015,08,29,03,25,999.83
2015,08,29,03,26,999.76
2015,08,29,03,27,999.76
2015,08,29,03,28,999.70
2015,08,29,03,29,999.76
2015,08,29,03,30,999.70
2015,08,29,03,31,999.70
2015,08,29,03,32,999.63
2015,08,29,03,33,999.70
2015,08,29,03,34,999.63
2015,08,29,03,35,999.63
2015,08,29,03,36,999.56
2015,08,29,03,37,999.56
2015,08,29,03,38,999.56
2015,08,29,03,39,999.56
2015,08,29,03,40,999.56
2015,08,29,03,41,999.53
2015,08,29,03,42,999.49
2015,08,29,03,43,999.46
2015,08,29,03,44,999.49
2015,08,29,03,45,999.49
2015,08,29,03,46,999.49
2015,08,29,03,47,999.43
2015,08,29,03,48,999.43
2015,08,29,03,49,999.36
2015,08,29,03,50,999.43
2015,08,29,03,51,999.39
2015,08,29,03,52,999.39
2015,08,29,03,53,999.32
2015,08,29,03,54,999.39
2015,08,29,03,55,999.29
2015,08,29,03,56,999.32
2015,08,29,03,57,999.26
2015,08,29,03,58,999.19
2015,08,29,03,59,999.12
2015,08,29,04,00,999.15
2015,08,29,04,01,999.09
2015,08,29,04,02,999.09
2015,08,29,04,03,999.12
2015,08,29,04,04,999.12
2015,08,29,04,05,999.12
2015,08,29,04,06,999.02
2015,08,29,04,07,998.99
2015,08,29,04,08,999.05
2015,08,29,04,09,999.05
2015,08,29,04,10,998.99
2015,08,29,04,11,999.02
2015,08,29,04,12,998.99
2015,08,29,04,13,998.99
2015,08,29,04,14,998.99
2015,08,29,04,15,999.02
2015,08,29,04,16,998.99
2015,08,29,04,17,998.99
2015,08,29,04,18,998.99
2015,08,29,04,19,998.92
2015,08,29,04,20,998.95
2015,08,29,04,21,998.82
2015,08,29,04,22,998.82
2015,08,29,04,23,998.78
2015,08,29,04,24,998.71
2015,08,29,04,25,998.75
2015,08,29,04,26,998.68
2015,08,29,04,27,998.68
2015,08,29,04,28,998.65
2015,08,29,04,29,998.68
2015,08,29,04,30,998.68
2015,08,29,04,31,998.68
2015,08,29,04,32,998.68
2015,08,29,04,33,998.68
2015,08,29,04,34,998.65
2015,08,29,04,35,998.51
2015,08,29,04,36,998.48
2015,08,29,04,37,998.38
2015,08,29,04,38,998.31
2015,08,29,04,39,998.31
2015,08,29,04,40,998.34
2015,08,29,04,41,998.44
2015,08,29,04,42,998.48
2015,08,29,04,43,998.44
2015,08,29,04,44,998.38
2015,08,29,04,45,998.31
2015,08,29,04,46,998.27
2015,08,29,04,47,998.21
2015,08,29,04,48,998.14
2015,08,29,04,49,998.07
2015,08,29,04,50,998.04
2015,08,29,04,51,998.04
2015,08,29,04,52,998.00
2015,08,29,04,53,997.97
2015,08,29,04,54,997.94
2015,08,29,04,55,997.83
2015,08,29,04,56,997.80
2015,08,29,04,57,997.83
2015,08,29,04,58,997.83
2015,08,29,04,59,997.80
2015,08,29,05,00,997.77
2015,08,29,05,01,997.80
2015,08,29,05,02,997.73
2015,08,29,05,03,997.73
2015,08,29,05,04,997.56
2015,08,29,05,05,997.56
2015,08,29,05,06,997.50
2015,08,29,05,07,997.46
2015,08,29,05,08,997.53
2015,08,29,05,09,997.50
2015,08,29,05,10,997.50
2015,08,29,05,11,997.50
2015,08,29,05,12,997.43
2015,08,29,05,13,997.46
2015,08,29,05,14,997.43
2015,08,29,05,15,997.46
2015,08,29,05,16,997.43
2015,08,29,05,17,997.46
2015,08,29,05,18,997.43
2015,08,29,05,19,997.39
2015,08,29,05,20,997.43
2015,08,29,05,21,997.50
2015,08,29,05,22,997.53
2015,08,29,05,23,997.46
2015,08,29,05,24,997.43
2015,08,29,05,25,997.43
2015,08,29,05,26,997.39
2015,08,29,05,27,997.46
2015,08,29,05,28,997.43
2015,08,29,05,29,997.39
2015,08,29,05,30,997.33
2015,08,29,05,31,997.36
2015,08,29,05,32,997.33
2015,08,29,05,33,997.33
2015,08,29,05,34,997.33
2015,08,29,05,35,997.42
2015,08,29,05,36,997.33
2015,08,29,05,37,997.39
2015,08,29,05,38,997.29
2015,08,29,05,39,997.33
2015,08,29,05,40,997.33
2015,08,29,05,41,997.33
2015,08,29,05,42,997.29
2015,08,29,05,43,997.36
2015,08,29,05,44,997.43
2015,08,29,05,45,997.36
2015,08,29,05,46,997.39
2015,08,29,05,47,997.43
2015,08,29,05,48,997.46
2015,08,29,05,49,997.43
2015,08,29,05,50,997.43
2015,08,29,05,51,997.43
2015,08,29,05,52,997.39
2015,08,29,05,53,997.43
2015,08,29,05,54,997.43
2015,08,29,05,55,997.46
2015,08,29,05,56,997.50
2015,08,29,05,57,997.50
2015,08,29,05,58,997.50
2015,08,29,05,59,997.50
2015,08,29,06,00,997.50
2015,08,29,06,01,997.46
2015,08,29,06,02,997.46
2015,08,29,06,03,997.46
2015,08,29,06,04,997.53
2015,08,29,06,05,997.53
2015,08,29,06,06,997.60
2015,08,29,06,07,997.60
2015,08,29,06,08,997.60
2015,08,29,06,09,997.63
2015,08,29,06,10,997.63
2015,08,29,06,11,997.63
2015,08,29,06,12,997.66
2015,08,29,06,13,997.66
2015,08,29,06,14,997.73
2015,08,29,06,15,997.73
2015,08,29,06,16,997.73
2015,08,29,06,17,997.77
2015,08,29,06,18,997.80
2015,08,29,06,19,997.83
2015,08,29,06,20,997.87
2015,08,29,06,21,997.83
2015,08,29,06,22,997.77
2015,08,29,06,23,997.53
2015,08,29,06,24,997.43
2015,08,29,06,25,997.39
2015,08,29,06,26,997.29
2015,08,29,06,27,997.19
2015,08,29,06,28,997.12
2015,08,29,06,29,997.12
2015,08,29,06,30,997.09
2015,08,29,06,31,996.96
2015,08,29,06,32,996.82
2015,08,29,06,33,996.68
2015,08,29,06,34,996.61
2015,08,29,06,35,996.45
2015,08,29,06,36,996.31
2015,08,29,06,37,996.18
2015,08,29,06,38,996.11
2015,08,29,06,39,996.07
2015,08,29,06,40,995.97
2015,08,29,06,41,995.80
2015,08,29,06,42,995.80
2015,08,29,06,43,995.73
2015,08,29,06,44,995.63
2015,08,29,06,45,995.60
2015,08,29,06,46,995.63
2015,08,29,06,47,995.56
2015,08,29,06,48,995.50
2015,08,29,06,49,995.53
2015,08,29,06,50,995.46
2015,08,29,06,51,995.43
2015,08,29,06,52,995.29
2015,08,29,06,53,995.23
2015,08,29,06,54,995.09
2015,08,29,06,55,995.02
2015,08,29,06,56,995.12
2015,08,29,06,57,995.19
2015,08,29,06,58,995.19
2015,08,29,06,59,995.23
2015,08,29,07,00,995.06
2015,08,29,07,01,994.96
2015,08,29,07,02,994.82
2015,08,29,07,03,994.65
2015,08,29,07,04,994.65
2015,08,29,07,05,994.52
2015,08,29,07,06,994.48
2015,08,29,07,07,994.58
2015,08,29,07,08,994.62
2015,08,29,07,09,994.72
2015,08,29,07,10,994.68
2015,08,29,07,11,994.68
2015,08,29,07,12,994.72
2015,08,29,07,13,994.68
2015,08,29,07,14,994.75
2015,08,29,07,15,994.62
2015,08,29,07,16,994.58
2015,08,29,07,17,994.45
2015,08,29,07,18,994.38
2015,08,29,07,19,994.35
2015,08,29,07,20,994.28
2015,08,29,07,21,994.15
2015,08,29,07,22,994.01
2015,08,29,07,23,994.11
2015,08,29,07,24,994.24
2015,08,29,07,25,994.31
2015,08,29,07,26,994.31
2015,08,29,07,27,994.28
2015,08,29,07,28,994.21
2015,08,29,07,29,994.18
2015,08,29,07,30,994.14
2015,08,29,07,31,994.11
2015,08,29,07,32,994.11
2015,08,29,07,33,994.04
2015,08,29,07,34,994.04
2015,08,29,07,35,994.04
2015,08,29,07,36,994.23
2015,08,29,07,37,994.31
2015,08,29,07,38,994.24
2015,08,29,07,39,994.18
2015,08,29,07,40,994.11
2015,08,29,07,41,994.04
2015,08,29,07,42,994.04
2015,08,29,07,43,994.14
2015,08,29,07,44,994.11
2015,08,29,07,45,994.18
2015,08,29,07,46,994.28
2015,08,29,07,47,994.55
2015,08,29,07,48,994.62
2015,08,29,07,49,994.49
2015,08,29,07,50,994.38
2015,08,29,07,51,994.48
2015,08,29,07,52,994.55
2015,08,29,07,53,994.58
2015,08,29,07,54,994.65
2015,08,29,07,55,994.55
2015,08,29,07,56,994.62
2015,08,29,07,57,994.62
2015,08,29,07,58,994.72
2015,08,29,07,59,994.68
2015,08,29,08,00,994.75
2015,08,29,08,01,994.79
2015,08,29,08,02,994.89
2015,08,29,08,03,994.89
2015,08,29,08,04,994.99
2015,08,29,08,05,995.09
2015,08,29,08,06,995.09
2015,08,29,08,07,995.06
2015,08,29,08,08,995.09
2015,08,29,08,09,995.12
2015,08,29,08,10,995.06
2015,08,29,08,11,994.99
2015,08,29,08,12,994.99
2015,08,29,08,13,994.90
2015,08,29,08,14,994.92
2015,08,29,08,15,994.92
2015,08,29,08,16,994.96
2015,08,29,08,17,994.96
2015,08,29,08,18,995.02
2015,08,29,08,19,995.02
2015,08,29,08,20,994.96
2015,08,29,08,21,994.99
2015,08,29,08,22,994.99
2015,08,29,08,23,994.96
2015,08,29,08,24,994.99
2015,08,29,08,25,995.02
2015,08,29,08,26,994.96
2015,08,29,08,27,994.96
2015,08,29,08,28,994.86
2015,08,29,08,29,994.89
2015,08,29,08,30,994.85
2015,08,29,08,31,994.89
2015,08,29,08,32,994.92
2015,08,29,08,33,994.99
2015,08,29,08,34,995.06
2015,08,29,08,35,995.12
2015,08,29,08,36,995.12
2015,08,29,08,37,995.12
2015,08,29,08,38,995.03
2015,08,29,08,39,994.96
2015,08,29,08,40,994.96
2015,08,29,08,41,994.96
2015,08,29,08,42,994.99
2015,08,29,08,43,994.96
2015,08,29,08,44,994.96
2015,08,29,08,45,994.96
2015,08,29,08,46,994.89
2015,08,29,08,47,994.92
2015,08,29,08,48,994.89
2015,08,29,08,49,994.92
2015,08,29,08,50,994.92
2015,08,29,08,51,994.96
2015,08,29,08,52,995.05
2015,08,29,08,53,995.06
2015,08,29,08,54,995.02
2015,08,29,08,55,995.06
2015,08,29,08,56,995.06
2015,08,29,08,57,995.16
2015,08,29,08,58,995.16
2015,08,29,08,59,995.16
2015,08,29,09,00,995.12
2015,08,29,09,01,995.16
2015,08,29,09,02,995.23
2015,08,29,09,03,995.12
2015,08,29,09,04,995.23
2015,08,29,09,05,995.23
2015,08,29,09,06,995.26
2015,08,29,09,07,995.06
2015,08,29,09,08,995.19
2015,08,29,09,09,995.16
2015,08,29,09,10,995.19
2015,08,29,09,11,995.23
2015,08,29,09,12,995.19
2015,08,29,09,13,995.12
2015,08,29,09,14,995.23
2015,08,29,09,15,995.19
2015,08,29,09,16,995.16
2015,08,29,09,17,995.09
2015,08,29,09,18,995.09
2015,08,29,09,19,995.06
2015,08,29,09,20,994.97
2015,08,29,09,21,994.92
2015,08,29,09,22,994.92
2015,08,29,09,23,994.92
2015,08,29,09,24,994.96
2015,08,29,09,25,994.96
2015,08,29,09,26,995.12
2015,08,29,09,27,995.12
2015,08,29,09,28,995.26
2015,08,29,09,29,995.29
2015,08,29,09,30,995.26
2015,08,29,09,31,995.29
2015,08,29,09,32,995.26
2015,08,29,09,33,995.23
2015,08,29,09,34,995.35
2015,08,29,09,35,995.33
2015,08,29,09,36,995.26
2015,08,29,09,37,995.26
2015,08,29,09,38,995.23
2015,08,29,09,39,995.35
2015,08,29,09,40,995.33
2015,08,29,09,41,995.45
2015,08,29,09,42,995.46
2015,08,29,09,43,995.43
2015,08,29,09,44,995.50
2015,08,29,09,45,995.50
2015,08,29,09,46,995.53
2015,08,29,09,47,995.46
2015,08,29,09,48,995.43
2015,08,29,09,49,995.33
2015,08,29,09,50,995.40
2015,08,29,09,51,995.40
2015,08,29,09,52,995.40
2015,08,29,09,53,995.40
2015,08,29,09,54,995.46
2015,08,29,09,55,995.43
2015,08,29,09,56,995.46
2015,08,29,09,57,995.36
2015,08,29,09,58,995.24
2015,08,29,09,59,995.35
2015,08,29,10,00,995.24
2015,08,29,10,01,995.23
2015,08,29,10,02,995.26
2015,08,29,10,03,995.26
2015,08,29,10,04,995.23
2015,08,29,10,05,995.29
2015,08,29,10,06,995.26
2015,08,29,10,07,995.26
2015,08,29,10,08,995.29
2015,08,29,10,09,995.33
2015,08,29,10,10,995.29
2015,08,29,10,11,995.33
2015,08,29,10,12,995.29
2015,08,29,10,13,995.26
2015,08,29,10,14,995.16
2015,08,29,10,15,995.12
2015,08,29,10,16,995.12
2015,08,29,10,17,995.12
2015,08,29,10,18,995.12
2015,08,29,10,19,995.12
2015,08,29,10,20,995.12
2015,08,29,10,21,995.02
2015,08,29,10,22,994.99
2015,08,29,10,23,994.92
2015,08,29,10,24,994.96
2015,08,29,10,25,994.96
2015,08,29,10,26,995.02
2015,08,29,10,27,994.96
2015,08,29,10,28,995.08
2015,08,29,10,29,995.09
2015,08,29,10,30,995.12
2015,08,29,10,31,995.09
2015,08,29,10,32,995.09
2015,08,29,10,33,994.99
2015,08,29,10,34,994.89
2015,08,29,10,35,994.85
2015,08,29,10,36,994.89
2015,08,29,10,37,994.89
2015,08,29,10,38,994.92
2015,08,29,10,39,994.85
2015,08,29,10,40,994.85
2015,08,29,10,41,994.79
2015,08,29,10,42,994.75
2015,08,29,10,43,994.68
2015,08,29,10,44,994.65
2015,08,29,10,45,994.62
2015,08,29,10,46,994.55
2015,08,29,10,47,994.62
2015,08,29,10,48,994.55
2015,08,29,10,49,994.48
2015,08,29,10,50,994.48
2015,08,29,10,51,994.52
2015,08,29,10,52,994.48
2015,08,29,10,53,994.48
2015,08,29,10,54,994.39
2015,08,29,10,55,994.25
2015,08,29,10,56,994.18
2015,08,29,10,57,994.14
2015,08,29,10,58,994.11
2015,08,29,10,59,994.04
2015,08,29,11,00,993.97
2015,08,29,11,01,993.97
2015,08,29,11,02,994.01
2015,08,29,11,03,993.94
2015,08,29,11,04,993.97
2015,08,29,11,05,993.97
2015,08,29,11,06,993.97
2015,08,29,11,07,993.78
2015,08,29,11,08,993.67
2015,08,29,11,09,993.53
2015,08,29,11,10,993.57
2015,08,29,11,11,993.50
2015,08,29,11,12,993.50
2015,08,29,11,13,993.43
2015,08,29,11,14,993.34
2015,08,29,11,15,993.30
2015,08,29,11,16,993.30
2015,08,29,11,17,993.26
2015,08,29,11,18,993.23
2015,08,29,11,19,993.07
2015,08,29,11,20,992.99
2015,08,29,11,21,992.83
2015,08,29,11,22,992.79
2015,08,29,11,23,992.79
2015,08,29,11,24,992.66
2015,08,29,11,25,992.69
2015,08,29,11,26,992.65
2015,08,29,11,27,992.65
2015,08,29,11,28,992.65
2015,08,29,11,29,992.62
2015,08,29,11,30,992.69
2015,08,29,11,31,992.72
2015,08,29,11,32,992.79
2015,08,29,11,33,992.86
2015,08,29,11,34,992.82
2015,08,29,11,35,992.91
2015,08,29,11,36,992.86
2015,08,29,11,37,992.89
2015,08,29,11,38,992.89
2015,08,29,11,39,992.92
2015,08,29,11,40,992.83
2015,08,29,11,41,992.79
2015,08,29,11,42,992.82
2015,08,29,11,43,992.75
2015,08,29,11,44,992.63
2015,08,29,11,45,992.53
2015,08,29,11,46,992.48
2015,08,29,11,47,992.42
2015,08,29,11,48,992.38
2015,08,29,11,49,992.45
2015,08,29,11,50,992.42
2015,08,29,11,51,992.32
2015,08,29,11,52,992.28
2015,08,29,11,53,992.28
2015,08,29,11,54,992.15
2015,08,29,11,55,991.88
2015,08,29,11,56,991.94
2015,08,29,11,57,991.77
2015,08,29,11,58,991.65
2015,08,29,11,59,991.77
2015,08,29,12,00,991.65
2015,08,29,12,01,991.51
2015,08,29,12,02,991.47
2015,08,29,12,03,991.43
2015,08,29,12,04,991.31
2015,08,29,12,05,991.23
2015,08,29,12,06,990.91
2015,08,29,12,07,991.03
2015,08,29,12,08,991.12
2015,08,29,12,09,991.16
2015,08,29,12,10,991.20
2015,08,29,12,11,991.07
2015,08,29,12,12,991.19
2015,08,29,12,13,991.23
2015,08,29,12,14,991.36
2015,08,29,12,15,991.30
2015,08,29,12,16,991.33
2015,08,29,12,17,991.26
2015,08,29,12,18,991.23
2015,08,29,12,19,991.36
2015,08,29,12,20,991.40
2015,08,29,12,21,991.43
2015,08,29,12,22,991.50
2015,08,29,12,23,991.41
2015,08,29,12,24,991.49
2015,08,29,12,25,991.59
2015,08,29,12,26,991.60
2015,08,29,12,27,991.53
2015,08,29,12,28,991.57
2015,08,29,12,29,991.67
2015,08,29,12,30,991.64
2015,08,29,12,31,991.73
2015,08,29,12,32,991.90
2015,08,29,12,33,991.84
2015,08,29,12,34,992.03
2015,08,29,12,35,991.82
2015,08,29,12,36,991.84
2015,08,29,12,37,991.97
2015,08,29,12,38,992.01
2015,08,29,12,39,992.10
2015,08,29,12,40,992.21
2015,08,29,12,41,992.11
2015,08,29,12,42,992.27
2015,08,29,12,43,992.25
2015,08,29,12,44,992.18
2015,08,29,12,45,992.31
2015,08,29,12,46,992.28
2015,08,29,12,47,992.35
2015,08,29,12,48,992.38
2015,08,29,12,49,992.45
2015,08,29,12,50,992.68
2015,08,29,12,51,992.53
2015,08,29,12,52,992.45
2015,08,29,12,53,992.73
2015,08,29,12,54,992.75
2015,08,29,12,55,992.72
2015,08,29,12,56,992.72
2015,08,29,12,57,993.04
2015,08,29,12,58,992.92
2015,08,29,12,59,993.12
2015,08,29,13,00,993.06
2015,08,29,13,01,993.13
2015,08,29,13,02,993.25
2015,08,29,13,03,993.30
2015,08,29,13,04,993.33
2015,08,29,13,05,993.47
2015,08,29,13,06,993.53
2015,08,29,13,07,993.62
2015,08,29,13,08,993.63
2015,08,29,13,09,993.63
2015,08,29,13,10,993.70
2015,08,29,13,11,993.60
2015,08,29,13,12,993.60
2015,08,29,13,13,993.57
2015,08,29,15,32,1000.54
2015,08,29,15,33,1000.38
2015,08,29,15,34,1000.44
2015,08,29,15,35,1000.48
2015,08,29,15,36,1000.44
2015,08,29,15,37,1000.44
2015,08,29,15,38,1000.44
2015,08,29,15,39,1000.48
2015,08,29,15,40,1000.48
2015,08,29,15,41,1000.51
2015,08,29,15,42,1000.51
2015,08,29,15,43,1000.60
2015,08,29,15,44,1000.68
2015,08,29,15,45,1000.68
2015,08,29,15,46,1000.71
2015,08,29,15,47,1000.80
2015,08,29,15,48,1000.85
2015,08,29,15,49,1000.81
2015,08,29,15,50,1000.78
2015,08,29,15,51,1000.71
2015,08,29,15,52,1000.68
2015,08,29,15,53,1000.64
2015,08,29,15,54,1000.64
2015,08,29,15,55,1000.71
2015,08,29,15,56,1000.71
2015,08,29,15,57,1000.68
2015,08,29,15,58,1000.78
2015,08,29,15,59,1000.81
2015,08,29,16,00,1000.85
2015,08,29,16,01,1000.97
2015,08,29,16,02,1001.02
2015,08,29,16,03,1001.02
2015,08,29,16,04,1000.98
2015,08,29,16,05,1001.11
2015,08,29,16,06,1001.19
2015,08,29,16,07,1001.15
2015,08,29,16,08,1001.22
2015,08,29,16,09,1001.29
2015,08,29,16,10,1001.36
2015,08,29,16,11,1001.39
2015,08,29,16,12,1001.39
2015,08,29,16,13,1001.51
2015,08,29,16,14,1001.52
2015,08,29,16,15,1001.46
2015,08,29,16,16,1001.52
2015,08,29,16,17,1001.52
2015,08,29,16,18,1001.52
2015,08,29,16,19,1001.56
2015,08,29,16,20,1001.66
2015,08,29,16,21,1001.66
2015,08,29,16,22,1001.69
2015,08,29,16,23,1001.76
2015,08,29,16,24,1001.64
2015,08,29,16,25,1001.66
2015,08,29,16,26,1001.66
2015,08,29,16,27,1001.66
2015,08,29,16,28,1001.63
2015,08,29,16,29,1001.59
2015,08,29,16,30,1001.59
2015,08,29,16,31,1001.59
2015,08,29,16,32,1001.59
2015,08,29,16,33,1001.59
2015,08,29,16,34,1001.56
2015,08,29,16,35,1001.52
2015,08,29,16,36,1001.52
2015,08,29,16,37,1001.62
2015,08,29,16,38,1001.66
2015,08,29,16,39,1001.66
2015,08,29,16,40,1001.66
2015,08,29,16,41,1001.69
2015,08,29,16,42,1001.76
2015,08,29,16,43,1001.73
2015,08,29,16,44,1001.60
2015,08,29,16,45,1001.56
2015,08,29,16,46,1001.56
2015,08,29,16,47,1001.52
2015,08,29,16,48,1001.33
2015,08,29,16,49,1001.13
2015,08,29,16,50,1001.12
2015,08,29,16,51,1001.12
2015,08,29,16,52,1001.05
2015,08,29,16,53,1000.98
2015,08,29,16,54,1000.95
2015,08,29,16,55,1000.95
2015,08,29,16,56,1000.86
2015,08,29,16,57,1000.66
2015,08,29,16,58,1000.52
2015,08,29,16,59,1000.44
2015,08,29,17,00,1000.41
2015,08,29,17,01,1000.47
2015,08,29,17,02,1000.51
2015,08,29,17,03,1000.57
2015,08,29,17,04,1000.58
2015,08,29,17,05,1000.67
2015,08,29,17,06,1000.71
2015,08,29,17,07,1000.75
2015,08,29,17,08,1000.84
2015,08,29,17,09,1000.85
2015,08,29,17,10,1000.92
2015,08,29,17,11,1000.85
2015,08,29,17,12,1000.85
2015,08,29,17,13,1000.85
2015,08,29,17,14,1000.85
2015,08,29,17,15,1000.92
2015,08,29,17,16,1000.97
2015,08,29,17,17,1000.98
2015,08,29,17,18,1001.02
2015,08,29,17,19,1001.07
2015,08,29,17,20,1001.12
2015,08,29,17,21,1001.15
2015,08,29,17,22,1001.19
2015,08,29,17,23,1001.28
2015,08,29,17,24,1001.32
2015,08,29,17,25,1001.26
2015,08,29,17,26,1001.22
2015,08,29,17,27,1001.15
2015,08,29,17,28,1001.15
2015,08,29,17,29,1001.15
2015,08,29,17,30,1001.12
2015,08,29,17,31,1001.06
2015,08,29,17,32,1001.05
2015,08,29,17,33,1001.08
2015,08,29,17,34,1001.08
2015,08,29,17,35,1000.96
2015,08,29,17,36,1000.98
2015,08,29,17,37,1001.02
2015,08,29,17,38,1000.98
2015,08,29,17,39,1000.98
2015,08,29,17,40,1000.92
2015,08,29,17,41,1000.95
2015,08,29,17,42,1001.02
2015,08,29,17,43,1001.02
2015,08,29,17,44,1001.05
2015,08,29,17,45,1001.02
2015,08,29,17,46,1001.05
2015,08,29,17,47,1001.05
2015,08,29,17,48,1001.05
2015,08,29,17,49,1001.05
2015,08,29,17,50,1001.02
2015,08,29,17,51,1000.98
2015,08,29,17,52,1001.05
2015,08,29,17,53,1001.02
2015,08,29,17,54,1001.02
2015,08,29,17,55,1001.07
2015,08,29,17,56,1001.12
2015,08,29,17,57,1001.12
2015,08,29,17,58,1001.15
2015,08,29,17,59,1001.08
2015,08,29,18,00,1001.08
2015,08,29,18,01,1001.12
2015,08,29,18,02,1001.08
2015,08,29,18,03,1001.05
2015,08,29,18,04,1001.02
2015,08,29,18,05,1001.08
2015,08,29,18,06,1001.12
2015,08,29,18,07,1001.08
2015,08,29,18,08,1001.08
2015,08,29,18,09,1001.15
2015,08,29,18,10,1001.24
2015,08,29,18,11,1001.29
2015,08,29,18,12,1001.32
2015,08,29,18,13,1001.36
2015,08,29,18,14,1001.32
2015,08,29,18,15,1001.32
2015,08,29,18,16,1001.29
2015,08,29,18,17,1001.36
2015,08,29,18,18,1001.32
2015,08,29,18,19,1001.32
2015,08,29,18,20,1001.25
2015,08,29,18,21,1001.25
2015,08,29,18,22,1001.22
2015,08,29,18,23,1001.15
2015,08,29,18,24,1001.08
2015,08,29,18,25,1001.18
2015,08,29,18,26,1001.12
2015,08,29,18,27,1001.05
2015,08,29,18,28,1000.98
2015,08,29,18,29,1000.98
2015,08,29,18,30,1001.02
2015,08,29,18,31,1001.02
2015,08,29,18,32,1001.08
2015,08,29,18,33,1001.12
2015,08,29,18,34,1001.06
2015,08,29,18,35,1001.08
2015,08,29,18,36,1001.12
2015,08,29,18,37,1001.28